Weather History for Riverside March, CA

Change the Weather History Date:

Tuesday, December 25, 2012

  Actual Average Record
Temperature  
Mean Temperature 48 °F -  
Max Temperature 57 °F 62 °F 77 °F (2006)
Min Temperature 38 °F 37 °F 28 °F (1998)
Degree Days  
Heating Degree Days 18    
Moisture  
Dew Point 42 °F    
Average Humidity 86    
Maximum Humidity 100    
Minimum Humidity 43    
Precipitation  
Precipitation 0.00 in - - ()
Sea Level Pressure  
Sea Level Pressure 30.07 in    
Wind  
Wind Speed 2 mph (SSE)    
Max Wind Speed 8 mph    
Max Gust Speed -    
Visibility 5 miles    
Events Fog    
Averages and records for this station are not official NWS values.
T = Trace of Precipitation, MM = Missing Value Source: NWS Daily Summary

Daily Weather History Graph

Daily Weather History Graph

Search for Another Location

Airport:

Trip Planner

Search our weather history database for the weather conditions in past years. The results will help you decide how hot, cold, wet, or windy it might be!

Date:

Astronomy

Dec. 25, 2012 Rise Set
Actual Time 6:52 AM PST 4:46 PM PST
Civil Twilight 6:24 AM PST 5:14 PM PST
Nautical Twilight 5:53 AM PST 5:45 PM PST
Astronomical Twilight 5:22 AM PST 6:16 PM PST
Moon 2:56 PM PST (12/25) 4:30 AM PST (12/25)
Length of Visible Light 10h 49m
Length of Day
9h 54m
Waxing Gibbous, 94% of the Moon is Illuminated
Dec 25
Waxing Gibbous
Dec 28
Full
Jan 4
Last Quarter
Jan 11
New
Jan 18
First Quarter

Hourly Weather History & Observations

Time (PST) Temp. Windchill Dew Point Humidity Pressure Visibility Wind Dir Wind Speed Gust Speed Precip Events Conditions
12:14 AM 48.2 °F - 48.2 °F 100% 30.07 in 4.0 mi ESE 2.3 mph - N/A   Overcast
12:28 AM 50.0 °F - 50.0 °F 100% 30.07 in 1.5 mi SSE 2.3 mph - N/A   Overcast
12:38 AM 50.0 °F - 50.0 °F 100% 30.07 in 0.5 mi SSE 2.3 mph - N/A Fog Fog
12:43 AM 50.0 °F - 50.0 °F 100% 30.07 in 0.2 mi SE 2.3 mph - N/A Fog Fog
12:58 AM 50.0 °F - 49.1 °F 97% 30.08 in 0.2 mi South 2.3 mph - N/A Fog Fog
1:58 AM 49.1 °F - 49.1 °F 100% 30.08 in 0.2 mi NE 2.3 mph - N/A Fog Fog
2:58 AM 47.1 °F - 47.1 °F 100% 30.07 in 0.2 mi WNW 3.5 mph - N/A Fog Fog
3:48 AM 46.4 °F 45.2 °F 46.4 °F 100% 30.09 in 3.0 mi NW 3.5 mph - N/A   Scattered Clouds
3:58 AM 45.3 °F - 45.3 °F 100% 30.09 in 5.0 mi NNW 2.3 mph - N/A   Scattered Clouds
4:58 AM 43.3 °F - 43.3 °F 100% 30.10 in 6.0 mi South 2.3 mph - N/A   Scattered Clouds
5:03 AM 42.8 °F - 42.8 °F 100% 30.09 in 2.0 mi South 2.3 mph - N/A   Scattered Clouds
5:10 AM 42.8 °F - 42.8 °F 100% 30.09 in 1.0 mi South 1.2 mph - N/A   Scattered Clouds
5:13 AM 42.8 °F 41.1 °F 42.8 °F 100% 30.09 in 0.5 mi South 3.5 mph - N/A Fog Fog
5:23 AM 42.8 °F - 42.8 °F 100% 30.10 in 0.2 mi South 2.3 mph - N/A Fog Fog
5:33 AM 42.8 °F - 42.8 °F 100% 30.10 in 0.2 mi SE 1.2 mph - N/A Fog Fog
5:58 AM 44.4 °F 42.9 °F 44.4 °F 100% 30.11 in 0.2 mi SSE 3.5 mph - N/A Fog Fog
6:33 AM 42.8 °F - 42.8 °F 100% 30.10 in 0.2 mi Calm Calm - N/A Fog Fog
6:58 AM 42.4 °F - 42.4 °F 100% 30.11 in 0.8 mi WSW 2.3 mph - N/A   Mostly Cloudy
7:08 AM 42.8 °F - 42.8 °F 100% 30.10 in 0.2 mi Calm Calm - N/A Fog Fog
7:13 AM 42.8 °F - 42.8 °F 100% 30.10 in 1.0 mi Calm Calm - N/A   Mostly Cloudy
7:18 AM 42.8 °F - 42.8 °F 100% 30.10 in 8.0 mi West 1.2 mph - N/A   Mostly Cloudy
7:58 AM 43.2 °F - 43.2 °F 100% 30.11 in 10.0 mi Calm Calm - N/A   Mostly Cloudy
8:58 AM 45.1 °F - 45.1 °F 100% 30.12 in 10.0 mi Calm Calm - N/A   Clear
9:58 AM 47.8 °F - 47.8 °F 100% 30.10 in 10.0 mi SSE 1.2 mph - N/A   Clear
10:58 AM 52.2 °F - 52.2 °F 100% 30.08 in 10.0 mi East 6.9 mph - N/A   Partly Cloudy
11:58 AM 57.4 °F - 37.6 °F 48% 30.06 in 10.0 mi East 8.1 mph - N/A   Scattered Clouds
12:58 PM 57.0 °F - 36.0 °F 45% 30.05 in 10.0 mi NE 5.8 mph - N/A   Scattered Clouds
1:58 PM 56.5 °F - 36.1 °F 47% 30.03 in 10.0 mi Variable 4.6 mph - N/A   Clear
2:58 PM 55.6 °F - 33.3 °F 43% 30.01 in 10.0 mi NE 3.5 mph - N/A   Overcast
3:58 PM 55.2 °F - 32.7 °F 43% 30.01 in 10.0 mi NE 5.8 mph - N/A   Overcast
4:58 PM 53.2 °F - 31.8 °F 44% 30.01 in 10.0 mi ENE 5.8 mph - N/A   Mostly Cloudy
5:58 PM 50.0 °F - 33.1 °F 52% 30.01 in 10.0 mi Calm Calm - N/A   Mostly Cloudy
6:58 PM 44.8 °F - 33.6 °F 65% 30.03 in 10.0 mi Calm Calm - N/A   Mostly Cloudy
7:58 PM 41.5 °F - 35.2 °F 78% 30.01 in 10.0 mi SW 2.3 mph - N/A   Mostly Cloudy
8:58 PM 39.7 °F 36.5 °F 34.5 °F 82% 30.01 in 10.0 mi NW 4.6 mph - N/A   Clear
9:58 PM 41.2 °F - 34.5 °F 77% 30.02 in 10.0 mi Calm Calm - N/A   Clear
10:58 PM 38.5 °F - 33.6 °F 83% 30.03 in 10.0 mi Calm Calm - N/A   Clear
11:58 PM 39.7 °F 36.5 °F 33.8 °F 79% 29.99 in 10.0 mi South 4.6 mph - N/A   Clear